Location: Blue Sky Observatory
(43.1153°N, 70.9036°W)
Time: 01:01:06
(UTC-04:00)

Amateur Radio Satellites - All Passes

Search period start: 29 September 2016 00:31
Search period end: 30 September 2016 00:31
Location: Blue Sky Observatory, 43.1153°N, 70.9036°W

Satellite Date Start Highest point End Downlink Frequencies (MHz)
Time Altitude Azimuth
NANOSAT C BR1 29 Sep 00:37:53 00:42:05 79° 286° (WNW) 00:46:17 145.865
AUBIESAT-1 29 Sep 00:40:30 00:43:56 26° 258° (WSW) 00:47:10 437.475
UNISAT 6 29 Sep 00:46:19 00:47:28 11° 300° (WNW) 00:48:36 437.425
SWISSCUBE 29 Sep 00:47:56 00:49:48 12° 58° (ENE) 00:51:40 437.505
DX 1 29 Sep 00:50:36 00:54:30 31° 263° (W) 00:58:24 434.975-435.025
BEESAT 3 29 Sep 00:52:39 00:56:31 72° 121° (ESE) 01:00:27 437.485
50 SAT 29 Sep 00:59:43 01:01:23 13° 269° (W) 01:03:05 437.505
BEESAT 29 Sep 01:00:01 01:02:33 14° 60° (ENE) 01:05:06 436.000
Oscar 19 29 Sep 01:02:28 01:05:33 16° 90° (E) 01:08:37 437.125/150
QB50P2 29 Sep 01:02:37 01:06:31 37° 290° (WNW) 01:10:24 145.880/145.840
VELOX 1 29 Sep 01:03:50 01:06:34 16° 268° (W) 01:09:19 145.980
POLYITAN 1 29 Sep 01:04:48 01:08:42 37° 290° (WNW) 01:12:36 437.675
CUBEBUG 1 29 Sep 01:06:31 01:08:08 12° 271° (W) 01:09:45 437.445
TISAT 1 29 Sep 01:19:38 01:23:50 83° 256° (WSW) 01:28:02 437.305
ISS 29 Sep 01:34:22 01:37:33 45° 27° (NNE) 01:40:44 145.825
Cosmos 2491 29 Sep 01:35:13 01:43:57 57° 76° (ENE) 01:52:34 435.465 / 435.565
JAS-2 29 Sep 01:37:29 01:45:01 50° 293° (WNW) 01:52:13 435.910
BUGSAT 1 29 Sep 01:39:01 01:42:49 41° 288° (WNW) 01:46:36 437.445
DUCHIFAT 1 29 Sep 01:41:59 01:44:53 18° 295° (WNW) 01:47:47 145.980
SPROUT 29 Sep 01:42:52 01:43:48 11° 271° (W) 01:44:44 437.525
QB50P1 29 Sep 01:45:42 01:48:11 15° 297° (WNW) 01:50:39 145.935-145.965
BEESAT 2 29 Sep 01:50:29 01:54:22 56° 307° (NW) 01:58:19 435.950
POPSAT HIP 1 29 Sep 02:00:16 02:01:41 11° 299° (WNW) 02:03:07 437.405
Gurwin Techsat 1B 29 Sep 02:07:52 02:12:36 32° 96° (E) 02:17:18 435.225
ITUPSAT 1 29 Sep 02:09:43 02:14:24 64° 73° (ENE) 02:19:09 437.325
MOZHAYETS 4 29 Sep 02:16:38 02:18:57 14° 61° (ENE) 02:21:17
SWISSCUBE 29 Sep 02:22:07 02:26:52 86° 255° (WSW) 02:31:40 437.505
RS-15 29 Sep 02:22:34 02:33:24 33° 25° (NNE) 02:44:10 29.354- 29.394
BEESAT 3 29 Sep 02:32:19 02:34:39 15° 321° (NW) 02:36:59 437.485
KKS-1 29 Sep 02:33:53 02:36:02 13° 61° (ENE) 02:38:12 437.445
BEESAT 29 Sep 02:35:00 02:39:45 72° 257° (WSW) 02:44:31 436.000
YUBILEINY 29 Sep 02:35:13 02:43:39 54° 90° (E) 02:52:04 435.215
Oscar 19 29 Sep 02:40:13 02:45:20 65° 287° (WNW) 02:50:24 437.125/150
AIST 2 29 Sep 02:45:54 02:48:56 20° 112° (ESE) 02:52:00 435.215
Cosmos 2504 29 Sep 02:47:56 02:53:10 22° 82° (E) 02:58:18 435.465 / 435.565
AO-7 29 Sep 03:04:19 03:10:06 20° 91° (E) 03:15:50 29.400- 29.500
STARS 29 Sep 03:04:22 03:06:29 13° 61° (ENE) 03:08:35 437.465
ISS 29 Sep 03:11:07 03:13:54 25° 223° (SW) 03:16:41 145.825
JAS-2 29 Sep 03:25:40 03:28:11 12° 313° (NW) 03:30:41 435.910
Cosmos 2491 29 Sep 03:32:46 03:40:18 33° 277° (W) 03:47:48 435.465 / 435.565
PCSat 29 Sep 03:33:03 03:37:37 29° 109° (ESE) 03:42:14 145.827
ITAMSAT 1 29 Sep 03:35:47 03:40:56 56° 101° (E) 03:46:04 435.822/435.867
CUBESAT XI-V 29 Sep 03:39:26 03:41:51 14° 61° (ENE) 03:44:18 437.345
Gurwin Techsat 1B 29 Sep 03:47:45 03:52:33 35° 293° (WNW) 03:57:19 435.225
ITUPSAT 1 29 Sep 03:50:07 03:52:41 14° 270° (W) 03:55:16 437.325
MOZHAYETS 4 29 Sep 03:51:00 03:55:33 69° 259° (WSW) 04:00:09
AIST 1 29 Sep 04:00:08 04:01:43 12° 83° (E) 04:03:17
KKS-1 29 Sep 04:07:37 04:12:03 69° 257° (WSW) 04:16:30 437.445
AO-85 29 Sep 04:19:52 04:22:52 18° 39° (NE) 04:25:43 145.980
AIST 2 29 Sep 04:23:14 04:27:08 41° 310° (NW) 04:31:06 435.215
YUBILEINY 29 Sep 04:32:54 04:40:46 36° 290° (WNW) 04:48:39 435.215
RS-15 29 Sep 04:35:48 04:48:17 78° 54° (NE) 05:00:27 29.354- 29.394
STARS 29 Sep 04:37:56 04:42:18 67° 258° (WSW) 04:46:40 437.465
Cosmos 2504 29 Sep 04:38:30 04:45:50 68° 281° (W) 04:52:59 435.465 / 435.565
AO-7 29 Sep 04:55:29 05:03:49 86° 289° (WNW) 05:12:08 29.400- 29.500
CUSAT 1 29 Sep 05:04:29 05:11:28 35° 67° (ENE) 05:17:27 437.405
DANDE 29 Sep 05:04:35 05:10:27 20° 59° (ENE) 05:16:07 436.750
CUBESAT XI-V 29 Sep 05:13:56 05:18:38 72° 259° (WSW) 05:23:22 437.345
PCSat 29 Sep 05:15:39 05:20:49 44° 307° (NW) 05:26:01 145.827
ITAMSAT 1 29 Sep 05:16:11 05:19:58 21° 298° (WNW) 05:23:46 435.822/435.867
HORYU 2 29 Sep 05:18:06 05:21:58 28° 96° (E) 05:25:48 437.375
AIST 1 29 Sep 05:34:23 05:38:44 63° 280° (W) 05:43:05
GOMX 1 29 Sep 05:40:00 05:40:35 10° 87° (E) 05:41:09 467.674
CUTE-I 29 Sep 05:46:05 05:48:39 13° 89° (E) 05:51:14 437.470
Cubesat XI-IV 29 Sep 05:46:23 05:48:55 13° 89° (E) 05:51:28 437.490
BRITE-PL 29 Sep 05:54:17 05:58:48 40° 96° (E) 06:02:58 437.365/2234.400
AO-85 29 Sep 05:59:36 06:03:41 56° 241° (WSW) 06:07:30 145.980
O/OREOS (USA 219) 29 Sep 06:01:56 06:04:33 15° 99° (E) 06:07:11 437.305
NOAA 18 29 Sep 06:36:31 06:41:20 31° 96° (E) 06:46:08 137.9125
Cosmos 2504 29 Sep 06:38:26 06:40:43 12° 303° (WNW) 06:43:01 435.465 / 435.565
DANDE 29 Sep 06:46:06 06:54:34 81° 80° (E) 07:02:22 436.750
CUSAT 1 29 Sep 06:46:24 06:53:44 49° 270° (W) 06:59:52 437.405
STRAND 1 29 Sep 06:47:57 06:52:54 55° 72° (ENE) 06:57:54 437.568
RS-15 29 Sep 06:49:23 06:59:39 33° 257° (WSW) 07:09:45 29.354- 29.394
AO-7 29 Sep 06:49:36 06:55:30 22° 310° (NW) 07:01:23 29.400- 29.500
HORYU 2 29 Sep 06:54:37 06:58:27 29° 293° (WNW) 07:02:17 437.375
GONETS M04 29 Sep 07:01:25 07:06:58 19° 76° (ENE) 07:12:31
LilacSat-2 29 Sep 07:02:07 07:05:59 82° 102° (ESE) 07:09:50 437.200
NOAA 15 29 Sep 07:03:13 07:08:34 82° 104° (ESE) 07:13:51 137.62
PCSat 29 Sep 07:04:34 07:05:41 11° 330° (NNW) 07:06:49 145.827
GOMX 1 29 Sep 07:14:54 07:19:18 69° 285° (WNW) 07:23:28 467.674
CUTE-I 29 Sep 07:23:56 07:29:19 80° 286° (WNW) 07:34:41 437.470
Cubesat XI-IV 29 Sep 07:24:13 07:29:36 80° 287° (WNW) 07:34:58 437.490
DOVE 4 29 Sep 07:29:18 07:33:30 69° 101° (E) 07:37:37 437.250
BRITE-PL 29 Sep 07:33:20 07:37:00 22° 296° (WNW) 07:40:27 437.365/2234.400
O/OREOS (USA 219) 29 Sep 07:38:58 07:43:27 56° 296° (WNW) 07:47:59 437.305
PRISM 29 Sep 07:40:04 07:42:47 17° 64° (ENE) 07:45:30 437.425
Cosmos 2499 29 Sep 07:46:37 07:52:18 26° 84° (E) 07:57:56 435.465 / 435.565
COMPASS 1 29 Sep 07:53:53 07:54:59 11° 89° (E) 07:56:04 437.405
NOAA 18 29 Sep 08:17:01 08:22:02 38° 293° (WNW) 08:27:01 137.9125
HO-68 29 Sep 08:20:19 08:27:16 50° 100° (E) 08:34:09 435.675
SEEDS 29 Sep 08:22:45 08:26:39 34° 97° (E) 08:30:32 437.485
CUTE 1.7 + AOD 2 29 Sep 08:23:43 08:27:56 50° 99° (E) 08:32:06 437.475
CANX-2 29 Sep 08:25:13 08:29:30 61° 101° (E) 08:33:45 2200.000
STRAND 1 29 Sep 08:28:55 08:32:25 19° 268° (W) 08:35:57 437.568
DANDE 29 Sep 08:30:11 08:36:24 24° 279° (W) 08:42:18 436.750
BEESAT 2 29 Sep 08:30:39 08:33:09 16° 40° (NE) 08:35:37 435.950
CINEMA 3 29 Sep 08:30:56 08:35:08 84° 104° (ESE) 08:39:25 145.822/145.860
ZACube-1 29 Sep 08:36:15 08:37:19 11° 89° (E) 08:38:22 437.345
AAUSAT CUBESAT 2 29 Sep 08:41:22 08:45:02 29° 95° (E) 08:48:42 437.432
NOAA 15 29 Sep 08:44:44 08:47:38 15° 302° (WNW) 08:50:32 137.62
GONETS M04 29 Sep 08:53:37 09:02:28 89° 99° (E) 09:11:24
CUTE-I 29 Sep 09:06:28 09:08:30 12° 304° (NW) 09:10:32 437.470
Cubesat XI-IV 29 Sep 09:06:45 09:08:48 12° 304° (NW) 09:10:53 437.490
ANTELSAT 29 Sep 09:06:55 09:09:54 19° 65° (ENE) 09:12:54 437.575/2403.000
BEESAT 3 29 Sep 09:08:49 09:12:45 56° 53° (NE) 09:16:39 437.485
DOVE 4 29 Sep 09:09:19 09:10:37 11° 299° (WNW) 09:11:54 437.250
PRISM 29 Sep 09:13:43 09:17:44 45° 261° (W) 09:21:46 437.425
TIGRISAT 29 Sep 09:26:16 09:29:54 28° 68° (ENE) 09:33:31 435.000
COMPASS 1 29 Sep 09:26:47 09:30:59 67° 286° (WNW) 09:35:09 437.405
FUNcube-1 29 Sep 09:27:00 09:31:01 36° 97° (E) 09:35:06 145.935
CUBEBUG 2 29 Sep 09:28:41 09:33:00 85° 282° (WNW) 09:37:25 437.445
Cosmos 2499 29 Sep 09:38:00 09:44:56 54° 283° (WNW) 09:51:52 435.465 / 435.565
UWE-3 29 Sep 09:43:40 09:48:01 88° 280° (W) 09:52:27 435.000/436.395/437.385
DELFI C3 29 Sep 09:49:06 09:52:26 24° 95° (E) 09:55:44 145.870
SEEDS 29 Sep 09:58:50 10:02:10 22° 293° (WNW) 10:05:28 437.485
CUTE 1.7 + AOD 2 29 Sep 10:00:41 10:03:22 16° 296° (WNW) 10:06:02 437.475
CANX-2 29 Sep 10:02:38 10:04:51 14° 297° (WNW) 10:07:04 2200.000
Oscar 11 29 Sep 10:04:56 10:09:19 85° 284° (WNW) 10:13:41 145.826/435.025
UNISAT 6 29 Sep 10:06:39 10:10:54 82° 76° (ENE) 10:15:11 437.425
JAS-2 29 Sep 10:07:14 10:11:51 20° 54° (NE) 10:16:46 435.910
BEESAT 2 29 Sep 10:07:24 10:11:25 71° 239° (WSW) 10:15:24 435.950
HO-68 29 Sep 10:08:27 10:14:44 35° 299° (WNW) 10:21:01 435.675
ZACube-1 29 Sep 10:09:43 10:14:02 73° 285° (WNW) 10:18:27 437.345
AAUSAT CUBESAT 2 29 Sep 10:16:58 10:20:25 25° 292° (WNW) 10:23:50 437.432
HUMSAT D 29 Sep 10:17:23 10:21:01 27° 95° (E) 10:24:39 437.325/437.525
QB50P2 29 Sep 10:21:29 10:24:17 18° 64° (ENE) 10:27:06 145.880/145.840
POLYITAN 1 29 Sep 10:23:42 10:26:29 18° 65° (ENE) 10:29:17 437.675
PHONESAT 2.4 29 Sep 10:36:11 10:38:40 25° 161° (SSE) 10:41:10 2401.200-2431.200
ANTELSAT 29 Sep 10:42:20 10:46:21 40° 262° (W) 10:50:23 437.575/2403.000
BEESAT 3 29 Sep 10:47:53 10:49:56 14° 250° (WSW) 10:52:00 437.485
GONETS M04 29 Sep 10:54:14 11:00:34 21° 299° (WNW) 11:06:57
BUGSAT 1 29 Sep 10:56:07 10:58:13 14° 63° (ENE) 11:00:20 437.445
DUCHIFAT 1 29 Sep 10:58:14 11:02:00 34° 70° (ENE) 11:05:47 145.980
QB50P1 29 Sep 11:01:52 11:05:51 43° 71° (ENE) 11:09:50 145.935-145.965
TIGRISAT 29 Sep 11:02:59 11:06:33 26° 265° (W) 11:10:09 435.000
FUNcube-1 29 Sep 11:03:42 11:07:04 22° 293° (WNW) 11:10:29 145.935
AIST 2 29 Sep 11:05:28 11:08:47 22° 43° (NE) 11:12:06 435.215
POPSAT HIP 1 29 Sep 11:15:23 11:19:30 60° 74° (ENE) 11:23:39 437.405
CUBEBUG 1 29 Sep 11:16:59 11:18:20 11° 89° (E) 11:19:40 437.445
ESTCUBE 1 29 Sep 11:22:27 11:25:59 22° 93° (E) 11:29:30 437.505/2401.250
DELFI C3 29 Sep 11:23:49 11:27:13 27° 291° (WNW) 11:30:35 145.870
NANOSAT C BR1 29 Sep 11:30:31 11:34:42 85° 75° (ENE) 11:38:55 145.865
JAS-2 29 Sep 11:49:09 11:55:44 89° 70° (ENE) 12:03:11 435.910
SPROUT 29 Sep 11:50:31 11:51:38 11° 89° (E) 11:52:44 437.525
HUMSAT D 29 Sep 11:52:56 11:56:34 28° 291° (WNW) 12:00:14 437.325/437.525
QB50P2 29 Sep 11:55:45 11:59:46 44° 261° (W) 12:03:48 145.880/145.840
POLYITAN 1 29 Sep 11:57:57 12:01:58 43° 261° (W) 12:05:59 437.675
UKube-1 29 Sep 12:06:50 12:09:12 14° 91° (E) 12:11:34 .
AISAT 29 Sep 12:07:34 12:11:32 32° 97° (E) 12:15:28 437.250
PHONESAT 2.4 29 Sep 12:11:38 12:14:29 49° 177° (S) 12:17:21 2401.200-2431.200
AUBIESAT-1 29 Sep 12:19:05 12:20:12 11° 98° (E) 12:21:19 437.475
PCSat 29 Sep 12:19:13 12:24:03 31° 48° (NE) 12:28:51 145.827
Oscar 19 29 Sep 12:19:45 12:24:03 27° 65° (ENE) 12:28:22 437.125/150
50 SAT 29 Sep 12:24:06 12:27:39 44° 99° (E) 12:31:09 437.505
BUGSAT 1 29 Sep 12:29:09 12:33:10 54° 259° (W) 12:37:10 437.445
DUCHIFAT 1 29 Sep 12:34:36 12:37:46 21° 266° (W) 12:40:57 145.980
DX 1 29 Sep 12:37:16 12:41:22 39° 99° (E) 12:45:25 434.975-435.025
QB50P1 29 Sep 12:39:05 12:41:49 17° 268° (W) 12:44:34 145.935-145.965
AIST 2 29 Sep 12:43:27 12:47:29 46° 242° (WSW) 12:51:30 435.215
YUBILEINY 29 Sep 12:44:26 12:51:38 28° 66° (ENE) 12:58:46 435.215
Cosmos 2491 29 Sep 12:48:32 12:50:51 11° 71° (ENE) 12:53:10 435.465 / 435.565
VELOX 1 29 Sep 12:50:44 12:55:10 90° 24° (NNE) 12:59:33 145.980
CUBEBUG 1 29 Sep 12:50:46 12:55:05 68° 286° (WNW) 12:59:21 437.445
POPSAT HIP 1 29 Sep 12:53:59 12:55:40 12° 270° (W) 12:57:21 437.405
M-CUBED/EXP-1 PRIME 29 Sep 12:56:12 12:59:21 43° 105° (ESE) 13:02:30 437.505
ESTCUBE 1 29 Sep 12:58:42 13:02:54 38° 290° (WNW) 13:07:04 437.505/2401.250
TISAT 1 29 Sep 13:04:00 13:06:09 14° 91° (E) 13:08:19 437.305
ITAMSAT 1 29 Sep 13:18:39 13:21:09 14° 58° (ENE) 13:23:38 435.822/435.867
SPROUT 29 Sep 13:23:47 13:28:01 68° 285° (WNW) 13:32:14 437.525
Gurwin Techsat 1B 29 Sep 13:29:44 13:34:54 55° 71° (ENE) 13:40:06 435.225
JAS-2 29 Sep 13:37:48 13:41:52 17° 276° (W) 13:46:12 435.910
UKube-1 29 Sep 13:41:21 13:45:33 53° 288° (WNW) 13:49:45 .
AISAT 29 Sep 13:44:18 13:47:52 25° 294° (WNW) 13:51:24 437.250
PHONESAT 2.4 29 Sep 13:47:38 13:50:21 34° 194° (SSW) 13:53:05 2401.200-2431.200
AUBIESAT-1 29 Sep 13:51:47 13:54:53 38° 293° (WNW) 13:58:00 437.475
Oscar 19 29 Sep 13:58:17 14:03:10 41° 262° (W) 14:08:04 437.125/150
50 SAT 29 Sep 13:58:56 14:00:46 13° 296° (WNW) 14:02:35 437.505
PCSat 29 Sep 14:02:27 14:07:34 43° 247° (WSW) 14:12:39 145.827
AO-7 29 Sep 14:04:10 14:11:20 34° 57° (ENE) 14:18:30 29.400- 29.500
ITUPSAT 1 29 Sep 14:10:33 14:13:20 15° 91° (E) 14:16:07 437.325
DX 1 29 Sep 14:14:05 14:17:17 20° 295° (WNW) 14:20:28 434.975-435.025
SWISSCUBE 29 Sep 14:21:55 14:25:41 22° 94° (E) 14:29:25 437.505
Cosmos 2504 29 Sep 14:28:37 14:35:42 45° 75° (ENE) 14:43:14 435.465 / 435.565
VELOX 1 29 Sep 14:30:27 14:30:54 10° 301° (WNW) 14:31:21 145.980
M-CUBED/EXP-1 PRIME 29 Sep 14:32:30 14:33:32 11° 302° (WNW) 14:34:35 437.505
SO-50 29 Sep 14:33:03 14:37:33 40° 117° (ESE) 14:42:02 436.795
BEESAT 29 Sep 14:34:29 14:38:32 27° 95° (E) 14:42:34 436.000
Cosmos 2491 29 Sep 14:37:08 14:45:44 63° 92° (E) 14:54:26 435.465 / 435.565
TISAT 1 29 Sep 14:38:03 14:42:07 52° 287° (WNW) 14:46:09 437.305
YUBILEINY 29 Sep 14:40:33 14:49:10 69° 267° (W) 14:57:45 435.215
ITAMSAT 1 29 Sep 14:54:42 14:59:52 87° 255° (WSW) 15:05:05 435.822/435.867
Gurwin Techsat 1B 29 Sep 15:11:23 15:15:11 20° 268° (W) 15:19:01 435.225
PHONESAT 2.4 29 Sep 15:25:00 15:25:56 11° 209° (SSW) 15:26:53 2401.200-2431.200
AIST 1 29 Sep 15:40:33 15:44:28 33° 75° (ENE) 15:48:19
MOZHAYETS 4 29 Sep 15:45:22 15:49:15 26° 94° (E) 15:53:07
ITUPSAT 1 29 Sep 15:46:48 15:51:34 61° 287° (WNW) 15:56:19 437.325
AO-7 29 Sep 15:55:27 16:03:39 61° 256° (WSW) 16:11:54 29.400- 29.500
KKS-1 29 Sep 15:58:14 16:01:34 21° 94° (E) 16:04:53 437.445
SWISSCUBE 29 Sep 15:59:06 16:03:38 41° 290° (WNW) 16:08:06 437.505
O/OREOS (USA 219) 29 Sep 16:08:54 16:13:09 35° 60° (ENE) 16:17:22 437.305
BEESAT 29 Sep 16:12:01 16:16:21 35° 292° (WNW) 16:20:40 436.000
SO-50 29 Sep 16:13:51 16:18:08 30° 315° (NW) 16:22:22 436.795
HORYU 2 29 Sep 16:17:02 16:20:51 30° 68° (ENE) 16:24:43 437.375
Cosmos 2504 29 Sep 16:22:16 16:28:55 36° 273° (W) 16:35:58 435.465 / 435.565
STARS 29 Sep 16:27:00 16:30:14 20° 94° (E) 16:33:27 437.465
NOAA 18 29 Sep 16:29:05 16:29:25 10° 53° (NE) 16:29:45 137.9125
Cosmos 2491 29 Sep 16:35:41 16:43:11 31° 293° (WNW) 16:50:46 435.465 / 435.565
ITAMSAT 1 29 Sep 16:39:08 16:40:04 10° 273° (W) 16:41:00 435.822/435.867
YUBILEINY 29 Sep 16:41:02 16:44:11 12° 288° (WNW) 16:47:20 435.215
NOAA 15 29 Sep 16:46:25 16:50:16 21° 61° (ENE) 16:54:07 137.62
GOMX 1 29 Sep 16:46:51 16:50:22 18° 64° (ENE) 16:53:48 467.674
BRITE-PL 29 Sep 17:04:25 17:09:58 56° 72° (ENE) 17:15:22 437.365/2234.400
CUTE-I 29 Sep 17:08:09 17:12:27 26° 64° (ENE) 17:16:46 437.470
Cubesat XI-IV 29 Sep 17:08:36 17:12:54 26° 64° (ENE) 17:17:13 437.490
CUBESAT XI-V 29 Sep 17:09:58 17:13:56 26° 94° (E) 17:17:50 437.345
AIST 1 29 Sep 17:18:39 17:21:50 20° 273° (W) 17:24:58
MOZHAYETS 4 29 Sep 17:22:16 17:26:26 34° 291° (WNW) 17:30:37
KKS-1 29 Sep 17:34:09 17:38:16 38° 290° (WNW) 17:42:22 437.445
LilacSat-2 29 Sep 17:44:53 17:48:27 43° 73° (ENE) 17:52:03 437.200
O/OREOS (USA 219) 29 Sep 17:48:39 17:52:23 25° 257° (WSW) 17:56:05 437.305
HORYU 2 29 Sep 17:53:40 17:57:23 27° 264° (W) 18:01:08 437.375
AO-7 29 Sep 17:57:06 17:58:04 10° 275° (W) 17:59:02 29.400- 29.500
STARS 29 Sep 18:02:40 18:06:43 39° 290° (WNW) 18:10:47 437.465
NOAA 18 29 Sep 18:03:38 18:09:02 65° 71° (ENE) 18:14:26 137.9125
CUSAT 1 29 Sep 18:06:00 18:11:36 31° 84° (E) 18:18:05 437.405
DANDE 29 Sep 18:16:39 18:18:47 12° 74° (ENE) 18:21:03 436.750
GOMX 1 29 Sep 18:22:41 18:28:01 64° 259° (W) 18:33:05 467.674
NOAA 15 29 Sep 18:24:23 18:29:36 58° 259° (W) 18:34:51 137.62
DOVE 4 29 Sep 18:34:49 18:39:48 79° 76° (ENE) 18:44:30 437.250
BRITE-PL 29 Sep 18:44:22 18:48:41 22° 268° (W) 18:52:57 437.365/2234.400
CUBESAT XI-V 29 Sep 18:47:07 18:51:19 33° 291° (WNW) 18:55:29 437.345
CUTE-I 29 Sep 18:47:12 18:52:14 44° 261° (W) 18:57:20 437.470
Cubesat XI-IV 29 Sep 18:47:39 18:52:43 44° 261° (W) 18:57:49 437.490
HO-68 29 Sep 18:49:56 18:56:32 42° 64° (ENE) 19:03:08 435.675
STRAND 1 29 Sep 18:58:29 19:01:52 17° 91° (E) 19:05:13 437.568
RS-15 29 Sep 19:00:15 19:10:52 45° 108° (ESE) 19:22:00 29.354- 29.394
GONETS M04 29 Sep 19:02:59 19:11:27 47° 74° (ENE) 19:19:47
SEEDS 29 Sep 19:15:27 19:19:00 27° 68° (ENE) 19:22:34 437.485
CUTE 1.7 + AOD 2 29 Sep 19:17:08 19:21:05 39° 71° (ENE) 19:25:04 437.475
CANX-2 29 Sep 19:18:39 19:22:43 47° 73° (ENE) 19:26:49 2200.000
LilacSat-2 29 Sep 19:21:07 19:22:59 13° 269° (W) 19:24:51 437.200
Cosmos 2499 29 Sep 19:26:07 19:33:33 55° 77° (ENE) 19:41:31 435.465 / 435.565
AAUSAT CUBESAT 2 29 Sep 19:32:42 19:35:57 23° 67° (ENE) 19:39:15 437.432
CINEMA 3 29 Sep 19:33:14 19:37:41 85° 74° (ENE) 19:41:58 145.822/145.860
NOAA 18 29 Sep 19:46:33 19:50:08 18° 268° (W) 19:53:44 137.9125
CUSAT 1 29 Sep 19:46:45 19:53:08 54° 287° (WNW) 20:00:45 437.405
ISS 29 Sep 19:51:03 19:54:14 55° 142° (SE) 19:57:26 145.825
DANDE 29 Sep 19:54:28 19:59:50 80° 97° (E) 20:06:57 436.750
AO-85 29 Sep 20:13:42 20:18:31 39° 116° (ESE) 20:23:04 145.980
DOVE 4 29 Sep 20:16:13 20:17:56 12° 271° (W) 20:19:38 437.250
COMPASS 1 29 Sep 20:17:53 20:22:04 89° 101° (E) 20:26:18 437.405
FUNcube-1 29 Sep 20:23:42 20:27:18 30° 69° (ENE) 20:30:56 145.935
CUBEBUG 2 29 Sep 20:27:38 20:31:49 88° 76° (ENE) 20:35:59 437.445
STRAND 1 29 Sep 20:36:21 20:41:26 60° 288° (WNW) 20:46:30 437.568
DELFI C3 29 Sep 20:36:21 20:39:02 18° 65° (ENE) 20:41:44 145.870
HO-68 29 Sep 20:37:33 20:44:13 41° 262° (W) 20:50:56 435.675
UWE-3 29 Sep 20:41:31 20:45:39 83° 76° (ENE) 20:49:49 435.000/436.395/437.385
SEEDS 29 Sep 20:51:02 20:54:37 27° 265° (W) 20:58:15 437.485
CUTE 1.7 + AOD 2 29 Sep 20:54:05 20:57:05 19° 268° (W) 21:00:06 437.475
PRISM 29 Sep 20:54:42 20:57:54 21° 94° (E) 21:01:04 437.425
CANX-2 29 Sep 20:56:16 20:58:50 16° 269° (W) 21:01:25 2200.000
GONETS M04 29 Sep 21:00:08 21:08:05 40° 274° (W) 21:15:58
Oscar 11 29 Sep 21:00:12 21:04:31 81° 74° (ENE) 21:08:51 145.826/435.025
ZACube-1 29 Sep 21:06:18 21:10:25 84° 257° (WSW) 21:14:36 437.345
AAUSAT CUBESAT 2 29 Sep 21:07:31 21:11:15 32° 264° (W) 21:15:03 437.432
HUMSAT D 29 Sep 21:09:59 21:13:04 21° 66° (ENE) 21:16:10 437.325/437.525
RS-15 29 Sep 21:11:22 21:22:57 62° 313° (NW) 21:35:09 29.354- 29.394
Cosmos 2499 29 Sep 21:19:52 21:26:17 31° 275° (W) 21:33:06 435.465 / 435.565
SO-50 29 Sep 21:25:31 21:26:14 10° 28° (NNE) 21:26:58 436.795
ISS 29 Sep 21:27:59 21:30:53 28° 341° (NNW) 21:33:47 145.825
CUSAT 1 29 Sep 21:34:48 21:37:14 12° 310° (NW) 21:39:46 437.405
DANDE 29 Sep 21:39:45 21:43:51 19° 303° (WNW) 21:48:38 436.750
AO-85 29 Sep 21:54:24 21:59:02 33° 313° (NW) 22:03:23 145.980
UNISAT 6 29 Sep 21:58:10 22:00:56 16° 92° (E) 22:03:42 437.425
FUNcube-1 29 Sep 22:00:17 22:03:34 23° 266° (W) 22:06:53 145.935
DELFI C3 29 Sep 22:09:48 22:13:34 39° 262° (W) 22:17:22 145.870
CUBEBUG 1 29 Sep 22:14:03 22:15:52 12° 61° (ENE) 22:17:39 437.445
VELOX 1 29 Sep 22:16:39 22:17:14 10° 59° (ENE) 22:17:49 145.980
ESTCUBE 1 29 Sep 22:22:55 22:26:31 24° 66° (ENE) 22:30:09 437.505/2401.250
PRISM 29 Sep 22:29:33 22:33:15 32° 291° (WNW) 22:36:55 437.425
ANTELSAT 29 Sep 22:32:26 22:36:32 36° 98° (E) 22:40:41 437.575/2403.000
HUMSAT D 29 Sep 22:44:46 22:48:28 33° 263° (W) 22:52:15 437.325/437.525
SPROUT 29 Sep 22:45:48 22:46:44 11° 60° (ENE) 22:47:40 437.525
TIGRISAT 29 Sep 22:52:11 22:56:32 55° 100° (E) 23:00:57 435.000
JAS-2 29 Sep 22:59:46 23:04:05 16° 84° (E) 23:08:17 435.910
50 SAT 29 Sep 23:01:57 23:04:51 23° 68° (ENE) 23:07:47 437.505
UKube-1 29 Sep 23:02:32 23:05:02 15° 62° (ENE) 23:07:33 .
SO-50 29 Sep 23:03:28 23:07:55 46° 50° (NE) 23:12:13 436.795
AUBIESAT-1 29 Sep 23:04:38 23:07:42 22° 63° (ENE) 23:10:38 437.475
AISAT 29 Sep 23:05:40 23:09:39 33° 69° (ENE) 23:13:39 437.250
ISS 29 Sep 23:05:45 23:08:07 18° 1° (N) 23:10:28 145.825
NANOSAT C BR1 29 Sep 23:15:41 23:17:30 12° 90° (E) 23:19:18 145.865
RS-15 29 Sep 23:28:37 23:38:40 29° 343° (NNW) 23:49:00 29.354- 29.394
DX 1 29 Sep 23:33:29 23:37:33 39° 70° (ENE) 23:41:38 434.975-435.025
UNISAT 6 29 Sep 23:33:37 23:37:54 51° 287° (WNW) 23:42:16 437.425
QB50P2 29 Sep 23:39:45 23:43:20 26° 95° (E) 23:46:54 145.880/145.840
POLYITAN 1 29 Sep 23:41:56 23:45:31 26° 96° (E) 23:49:05 437.675
M-CUBED/EXP-1 PRIME 29 Sep 23:42:51 23:46:55 77° 71° (ENE) 23:50:41 437.505
CUBEBUG 1 29 Sep 23:47:07 23:51:32 74° 258° (WSW) 23:55:58 437.445
VELOX 1 29 Sep 23:48:31 23:52:59 89° 69° (ENE) 23:57:27 145.980
TISAT 1 29 Sep 23:57:15 23:59:09 13° 62° (ENE) 00:01:03 437.305
ESTCUBE 1 29 Sep 23:58:56 00:03:07 36° 263° (W) 00:07:21 437.505/2401.250
BEESAT 2 30 Sep 00:01:31 00:03:47 15° 110° (ESE) 00:06:04 435.950
ANTELSAT 30 Sep 00:09:33 00:13:03 23° 293° (WNW) 00:16:35 437.575/2403.000
BUGSAT 1 30 Sep 00:10:36 00:13:27 18° 93° (E) 00:16:17 437.445
DUCHIFAT 1 30 Sep 00:16:20 00:20:27 54° 100° (E) 00:24:34 145.980
SPROUT 30 Sep 00:17:46 00:22:02 81° 257° (WSW) 00:26:19 437.525
QB50P1 30 Sep 00:20:52 00:25:05 72° 102° (ESE) 00:29:17 145.935-145.965
